Regional Weather Roundup
Issued by NWS

Home | Current Version | Previous Version | Text Only | Print | Product List | Glossary On
Versions: 1 2 3 4 5 6 7 8 9 10 11 12 13 14 15 16 17 18 19 20 21 22 23 24 25 26 27 28 29 30 31 32 33 34 35 36 37 38 39 40 41 42 43 44 45 46 47 48 49 50
000
ASUS43 KDTX 030401
RWRMI
MICHIGAN HOURLY REGIONAL WEATHER ROUNDUP
NATIONAL WEATHER SERVICE DETROIT/PONTIAC MI
1200 AM EDT WED JUN 03 2015

NOTE: "FAIR" INDICATES FEW OR NO CLOUDS BELOW 12,000 FEET WITH NO
SIGNIFICANT WEATHER AND/OR OBSTRUCTION TO VISIBILITY.

MIZ047>049-052>055-059>063-066>070-074>076-081>083-030500-
SOUTHEAST LOWER MICHIGAN

CITY           SKY/WX    TMP DP  RH WIND       PRES   REMARKS
ADRIAN         CLEAR     53  45  74 CALM      30.17R
ALMA           CLEAR     52  46  80 E3        30.14F
ANN ARBOR      CLEAR     46  45  96 CALM      30.16R
BAD AXE        CLEAR     48  34  57 SE3       30.18S
CARO           CLEAR     50  43  76 CALM      30.17R
DETROIT CITY   CLEAR     56  47  71 CALM      30.16F
DETROIT        PTCLDY    58  45  62 E3        30.16S
FLINT          CLEAR     56  47  71 S3        30.16S
GROSSE ILE     CLEAR     55  46  71 NE3       30.15S
HILLSDALE      CLEAR     51  45  80 E5        30.15F
HOWELL         CLEAR     55  48  78 CALM      30.16S

CITY           SKY/WX    TMP DP  RH WIND       PRES   REMARKS
JACKSON        CLEAR     53  45  74 CALM      30.16S
LAMBERTVILLE   CLEAR     55  48  76 CALM      30.15S
LANSING        CLEAR     57  45  64 S10       30.15S
LAPEER         FAIR      53  41  62 CALM      30.18R
MASON          CLEAR     51  45  80 SE3       30.15S
MONROE         CLEAR     55  45  67 E5        30.14S
MT. CLEMENS    CLEAR     55  46  70 NE5       30.14F
PONTIAC        CLEAR     57  50  77 CALM      30.16R
PORT HOPE        N/A     50  37  61 S6        30.16S
PORT HURON     CLEAR     46  45  93 CALM      30.18S
TRI CITIES     CLEAR     56  46  69 CALM      30.16F
MIDLAND        FAIR      49  43  79 CALM      30.14F
TROY           CLEAR     58  48  69 E3        30.18S
SAGINAW HB     CLEAR     54  46  76 E5        30.15S
$$
MIZ043>046-050>051-056>058-064>065-071>073-077>080-030500-
SOUTHWEST LOWER MICHIGAN

CITY           SKY/WX    TMP DP  RH WIND       PRES   REMARKS
BATTLE CREEK   CLEAR     58  45  62 S6        30.15R
BENTON HARBOR  CLEAR     48  46  93 E3        30.11F
BIG RAPIDS     CLEAR     51  44  78 CALM      30.13R
COLDWATER      CLEAR     54  42  63 CALM      30.15R
FREMONT        FAIR      55  43  63 E3        30.11F
HOLLAND        CLEAR     52  45  77 CALM      30.12F
GRAND RAPIDS   CLEAR     56  50  80 S6        30.12S
IONIA          FAIR      58  49  73 SE5       30.13S
KALAMAZOO      CLEAR     60  44  55 S6        30.14S
LUDINGTON      PTCLDY    46  40  82 CALM      30.12S
MARSHALL       CLEAR     55  44  66 CALM      30.14S
MOUNT PLEASANT CLEAR     53  42  66 E3        30.13F
MUSKEGON       CLEAR     55  44  66 CALM      30.11F
SOUTH HAVEN    CLEAR     49  46  89 CALM      30.12S
$$
MIZ016>042-030500-
NORTHERN LOWER MICHIGAN

CITY           SKY/WX    TMP DP  RH WIND       PRES   REMARKS
ALPENA         CLEAR     49  35  58 CALM      30.14F
BEAVER ISLAND  CLEAR     43  38  83 CALM      30.11F
BELLAIRE       CLEAR     47  42  82 CALM      30.13S
CADILLAC       CLEAR     49  42  75 E3        30.13S
CHARLEVOIX     CLEAR     49  40  69 CALM      30.14S
FRANKFORT      CLEAR     46  36  68 CALM      30.12S
GAYLORD        CLEAR     57  39  51 SW3       30.13S
GRAYLING       CLEAR     54  41  61 S5        30.14S
HARBOR SPRINGS CLEAR     47  46  93 CALM      30.12S
HOUGHTON LAKE  CLEAR     53  38  56 SE7       30.14F
MANISTEE       CLEAR     46  41  81 E5        30.12F
OSCODA         CLEAR     45  37  75 CALM      30.15F
PELLSTON       CLEAR     44  41  89 CALM      30.12R
ROGERS CITY    CLEAR     56  37  48 S9        30.13F
TRAVERSE CITY  CLEAR     48  42  80 CALM      30.11F
$$
MIZ007>008-015-030500-
EASTERN UPPER MICHIGAN

CITY           SKY/WX    TMP DP  RH WIND       PRES   REMARKS
KINROSS        CLEAR     52  34  50 SE8       30.11S
MACKINAC ISLAN CLEAR     55  38  54 S6        30.10S
NEWBERRY       CLEAR     47  38  70 S5        30.09F
S. S. MARIE    CLEAR     53  33  46 E7        30.11F
$$
MIZ004>006-011>014-085-030500-
CENTRAL UPPER MICHIGAN

CITY           SKY/WX    TMP DP  RH WIND       PRES   REMARKS
MANISTIQUE     CLEAR     45  39  80 S5        30.09S
ESCANABA       CLEAR     52  41  66 S7        30.06F
MENOMINEE      CLEAR     54  36  50 S7        30.06S
SAWYER-GWINN   PTCLDY    54  39  57 S8        30.05S
$$
MIZ001>003-009>011-084-030500-
WESTERN UPPER MICHIGAN

CITY           SKY/WX    TMP DP  RH WIND       PRES   REMARKS
IRON MOUNTAIN  CLEAR     55  38  52 SE6       30.04S
HOUGHTON       MOCLDY    54  40  59 CALM      29.97F
COPPER HARBOR    N/A     57  40  52 SW9       29.96F
IRONWOOD       MOCLDY    64  39  39 S9        29.94F
$$

ABBREVIATIONS USED IN REMARKS
   TC - TEMPERATURE IN CELSIUS
  WCI - WIND CHILL INDEX
   HX - HEAT INDEX
  VSB - VISIBILITY



USA.gov is the U.S. government's official web portal to all federal, state and local government web resources and services.